DW2213 Weather Reports


time (UTC)temp
C
wind
direction
speed
KPH
gust
KPH
rain 1hr
cm
rain 24hr
cm
rain mn
cm
humidity
%
barometer
mb
20260502123804 21 130 9.7 19.3 0.00 0.03 0.03 76 1018.3
20260502123304 21 108 11.3 16.1 0.00 0.03 0.03 76 1018.5
20260502122805 21 116 12.9 22.5 0.00 0.03 0.03 76 1018.6
20260502122306 22 113 9.7 14.5 0.00 0.03 0.03 76 1018.6
20260502121805 22 159 14.5 22.5 0.00 0.03 0.03 76 1018.5
20260502121305 22 139 9.7 19.3 0.00 0.03 0.03 76 1018.6
20260502120805 22 72 12.9 19.3 0.00 0.03 0.03 76 1018.6
20260502120305 22 100 14.5 19.3 0.00 0.03 0.03 76 1018.4
20260502115805 22 132 12.9 19.3 0.00 0.03 0.03 76 1018.5
20260502115306 22 131 12.9 19.3 0.00 0.03 0.03 76 1018.5
20260502114805 22 86 11.3 19.3 0.00 0.03 0.03 77 1018.4
20260502114304 21 116 11.3 19.3 0.00 0.03 0.03 77 1018.5
20260502113805 21 105 14.5 20.9 0.00 0.03 0.03 77 1018.5
20260502113304 21 106 11.3 19.3 0.00 0.03 0.03 78 1018.6
20260502112805 21 124 9.7 19.3 0.00 0.03 0.03 79 1018.7
20260502112306 21 117 8.0 12.9 0.00 0.03 0.03 79 1019.0
20260502111805 21 107 9.7 14.5 0.00 0.03 0.03 79 1019.0
20260502111305 21 119 9.7 19.3 0.00 0.03 0.03 78 1019.0
20260502110805 21 102 9.7 16.1 0.00 0.03 0.03 78 1019.0
20260502110304 21 83 9.7 20.9 0.00 0.03 0.03 78 1019.0
20260502105805 21 107 9.7 19.3 0.00 0.03 0.03 78 1019.0
20260502104804 21 77 4.8 11.3 0.00 0.03 0.03 78 1019.3
20260502103805 21 131 6.4 12.9 0.00 0.03 0.03 78 1019.2
20260502103304 21 79 9.7 14.5 0.00 0.03 0.03 78 1019.2
20260502102804 21 89 8.0 14.5 0.00 0.03 0.03 78 1019.2
20260502102306 21 128 8.0 14.5 0.00 0.03 0.03 78 1019.2
20260502101804 21 109 6.4 12.9 0.00 0.03 0.03 79 1019.2
20260502101305 21 111 9.7 12.9 0.00 0.03 0.03 79 1019.2
20260502100805 21 64 6.4 11.3 0.00 0.03 0.03 80 1019.2
20260502090804 20 107 0.0 3.2 0.03 0.03 0.03 83 1019.5
20260502090305 20 107 3.2 4.8 0.03 0.03 0.03 84 1019.6
20260502071304 19 162 1.6 4.8 0.00 0.00 0.00 86 1019.7
20260502070804 19 161 0.0 3.2 0.00 0.00 0.00 86 1019.7
20260502070304 19 161 1.6 3.2 0.00 0.00 0.00 86 1019.6
20260502065804 18 161 1.6 3.2 0.00 0.00 0.00 87 1019.6
20260502065306 18 162 3.2 4.8 0.00 0.00 0.00 87 1019.6
20260502064805 18 162 0.0 1.6 0.00 0.00 0.00 88 1019.6
20260502063804 18 162 0.0 3.2 0.00 0.00 0.00 89 1019.7
20260502063304 18 162 0.0 1.6 0.00 0.00 0.00 89 1019.6
20260502062804 18 161 0.0 1.6 0.00 0.00 0.00 89 1019.7
20260502062306 18 161 0.0 4.8 0.00 0.00 0.00 89 1019.9
20260502061805 18 161 0.0 3.2 0.00 0.00 0.00 89 1020.0
20260502061304 17 161 0.0 4.8 0.00 0.00 0.00 89 1019.8
20260502060804 17 161 0.0 0.0 0.00 0.00 0.00 89 1019.7
20260502060305 17 161 1.6 3.2 0.00 0.00 0.00 89 1019.7
20260502055804 17 161 0.0 4.8 0.00 0.00 0.00 89 1019.6
20260502055306 17 161 1.6 4.8 0.00 0.00 0.00 89 1019.5
20260502054804 17 161 0.0 3.2 0.00 0.00 0.00 89 1019.4
20260502053304 17 161 0.0 3.2 0.00 0.05 0.00 89 1019.4
20260502051804 17 162 1.6 4.8 0.00 0.05 0.00 88 1019.4
20260502051304 17 162 0.0 4.8 0.00 0.05 0.00 88 1019.2
20260502050804 17 162 0.0 1.6 0.00 0.05 0.00 88 1019.3
20260502050305 17 162 1.6 3.2 0.00 0.05 0.00 88 1019.2
20260502045804 17 162 0.0 1.6 0.00 0.05 0.00 88 1019.2
20260502045306 17 162 0.0 0.0 0.00 0.05 0.00 89 1019.2
20260502044804 17 162 0.0 0.0 0.00 0.05 0.00 89 1019.2
20260502044305 17 162 0.0 0.0 0.00 0.05 0.00 89 1019.2
20260502043804 17 162 0.0 0.0 0.00 0.05 0.00 89 1019.3
20260502043304 17 162 0.0 0.0 0.00 0.05 0.00 89 1019.3
20260502042804 17 161 0.0 0.0 0.00 0.05 0.00 89 1019.4
20260502042306 17 161 0.0 3.2 0.00 0.05 0.00 89 1019.4
20260502041804 17 161 1.6 4.8 0.00 0.05 0.00 89 1019.4
20260502041304 17 162 1.6 4.8 0.00 0.05 0.00 89 1019.4
20260502040304 17 162 0.0 4.8 0.00 0.05 0.00 89 1019.4
20260502035804 17 161 0.0 4.8 0.00 0.05 0.00 89 1019.6
20260502034804 17 161 1.6 4.8 0.00 0.05 0.00 89 1019.7
20260502034304 17 161 1.6 4.8 0.00 0.05 0.00 89 1019.7
20260502033805 17 161 0.0 3.2 0.00 0.05 0.00 89 1019.7
20260502033304 17 161 1.6 4.8 0.00 0.05 0.00 89 1019.8
20260502032804 17 161 0.0 3.2 0.00 0.05 0.00 89 1019.8
20260502032306 17 161 0.0 0.0 0.00 0.05 0.00 89 1019.8
20260502031804 17 161 0.0 3.2 0.00 0.05 0.00 89 1019.8
20260502031304 17 161 1.6 4.8 0.00 0.05 0.00 89 1019.8
20260502030804 17 161 0.0 1.6 0.00 0.05 0.00 89 1019.8
20260502030304 17 161 0.0 0.0 0.00 0.05 0.00 89 1019.8
20260502025306 17 161 0.0 0.0 0.00 0.05 0.00 89 1019.7
20260502024805 17 161 0.0 0.0 0.00 0.05 0.00 89 1019.7
20260502024304 17 161 0.0 0.0 0.00 0.05 0.00 89 1019.6
20260502023304 17 161 0.0 0.0 0.00 0.05 0.00 89 1019.7
20260502022804 17 161 0.0 0.0 0.00 0.05 0.00 89 1019.7
20260502022306 17 161 0.0 1.6 0.00 0.05 0.00 89 1019.7
20260502021304 17 161 0.0 0.0 0.00 0.05 0.00 89 1019.8
20260502020804 17 161 0.0 0.0 0.00 0.05 0.00 89 1019.8
20260502020304 17 161 0.0 1.6 0.00 0.05 0.00 89 1019.9
20260502015305 17 161 0.0 0.0 0.00 0.05 0.00 89 1019.9
20260502014804 17 161 0.0 1.6 0.00 0.05 0.00 89 1019.9
20260502014304 17 161 0.0 1.6 0.00 0.05 0.00 88 1019.9
20260502013803 17 161 0.0 0.0 0.00 0.05 0.00 88 1019.9
20260502013304 17 161 1.6 8.0 0.00 0.05 0.00 88 1019.9
20260502012804 17 162 3.2 8.0 0.00 0.05 0.00 88 1020.0
20260502011804 17 161 0.0 4.8 0.00 0.05 0.00 88 1020.1
20260502011304 17 162 3.2 8.0 0.00 0.05 0.00 88 1020.2
20260502010304 17 161 3.2 8.0 0.00 0.05 0.00 88 1020.3
20260502005804 17 115 0.0 1.6 0.00 0.05 0.00 88 1020.4
20260502005306 17 115 1.6 3.2 0.00 0.05 0.00 88 1020.4
20260502004804 17 115 0.0 1.6 0.00 0.05 0.00 88 1020.4
20260502004304 17 115 0.0 1.6 0.00 0.05 0.00 88 1020.5
20260502003804 17 115 0.0 1.6 0.00 0.05 0.00 88 1020.4
20260502003304 17 115 0.0 0.0 0.00 0.05 0.00 88 1020.4
20260502002804 17 115 1.6 3.2 0.00 0.05 0.00 88 1020.4
20260502002305 17 115 0.0 0.0 0.00 0.05 0.00 88 1020.6
20260502001804 17 115 0.0 0.0 0.00 0.05 0.00 88 1020.6
20260502001304 17 115 0.0 3.2 0.00 0.05 0.00 88 1020.7
20260502000804 17 115 1.6 3.2 0.00 0.05 0.00 88 1020.9
20260502000303 17 115 0.0 3.2 0.00 0.05 0.00 88 1020.9
20260501235804 17 115 0.0 0.0 0.00 0.05 0.00 88 1021.0
20260501235305 17 115 1.6 4.8 0.00 0.05 0.00 88 1021.0
20260501234804 17 115 1.6 3.2 0.00 0.05 0.00 88 1021.0
20260501234304 17 115 0.0 0.0 0.00 0.05 0.00 88 1021.0
20260501233804 17 115 0.0 0.0 0.00 0.05 0.00 88 1021.0
20260501233304 17 115 0.0 0.0 0.00 0.05 0.00 88 1021.2
20260501232804 17 115 1.6 3.2 0.00 0.05 0.00 88 1021.2
20260501232306 17 115 1.6 3.2 0.00 0.05 0.00 88 1021.3
20260501231804 17 115 0.0 3.2 0.00 0.05 0.00 88 1021.3
20260501231304 17 115 0.0 1.6 0.00 0.05 0.00 88 1021.3
20260501230804 17 115 1.6 3.2 0.00 0.05 0.00 87 1021.2
20260501230304 17 115 0.0 0.0 0.00 0.05 0.00 87 1021.1
20260501225804 17 115 0.0 0.0 0.00 0.05 0.00 87 1021.1
20260501225306 17 115 0.0 0.0 0.00 0.05 0.00 87 1021.1
20260501224804 17 115 0.0 0.0 0.00 0.05 0.00 87 1021.1
20260501224303 17 115 0.0 0.0 0.00 0.05 0.00 87 1021.2
20260501223804 17 115 0.0 1.6 0.00 0.05 0.00 86 1021.2
20260501223304 17 115 1.6 3.2 0.00 0.05 0.00 86 1021.2
20260501222305 18 115 0.0 0.0 0.00 0.05 0.00 86 1021.1
20260501221804 18 115 0.0 0.0 0.00 0.05 0.00 86 1021.2
20260501221304 18 115 0.0 0.0 0.00 0.05 0.00 86 1021.3
20260501220818 18 115 0.0 0.0 0.00 0.05 0.00 85 1021.3
20260501220305 18 115 0.0 0.0 0.00 0.05 0.00 85 1021.4
20260501215804 18 115 0.0 0.0 0.00 0.05 0.05 85 1021.4
20260501214804 18 115 0.0 0.0 0.00 0.05 0.05 85 1021.5
20260501214304 18 115 0.0 0.0 0.00 0.05 0.05 85 1021.5
20260501213804 18 115 0.0 0.0 0.00 0.05 0.05 85 1021.5
20260501213304 18 115 0.0 0.0 0.00 0.05 0.05 85 1021.5
20260501212306 18 115 0.0 0.0 0.00 0.05 0.05 85 1021.5
20260501211304 18 115 1.6 3.2 0.00 0.05 0.05 85 1021.6
20260501210804 18 115 0.0 1.6 0.00 0.05 0.05 84 1021.7
20260501210304 18 115 0.0 3.2 0.00 0.05 0.05 84 1021.7
20260501205306 18 115 1.6 3.2 0.00 0.05 0.05 84 1021.7
20260501204804 18 115 0.0 3.2 0.00 0.05 0.05 84 1021.7
20260501204304 18 115 0.0 3.2 0.00 0.05 0.05 84 1021.7
20260501203804 18 115 0.0 1.6 0.00 0.05 0.05 84 1021.6
20260501203304 19 115 0.0 3.2 0.00 0.05 0.05 84 1021.6
20260501202803 19 115 1.6 3.2 0.00 0.05 0.05 84 1021.6
20260501202306 19 115 1.6 3.2 0.00 0.05 0.05 84 1021.6
20260501201303 19 115 0.0 1.6 0.00 0.05 0.05 84 1021.5
20260501200804 19 115 1.6 3.2 0.00 0.05 0.05 83 1021.4
20260501200304 19 115 1.6 3.2 0.00 0.05 0.05 83 1021.3
20260501195804 19 115 1.6 4.8 0.00 0.05 0.05 83 1021.2
20260501195306 19 115 1.6 8.0 0.00 0.05 0.05 82 1021.1
20260501194804 19 115 3.2 4.8 0.00 0.05 0.05 82 1020.9
20260501194304 19 115 1.6 4.8 0.00 0.05 0.05 82 1020.9
20260501193304 20 115 3.2 8.0 0.00 0.05 0.05 82 1020.9
20260501192804 20 111 4.8 9.7 0.00 0.05 0.05 81 1020.8
20260501192306 20 82 1.6 4.8 0.00 0.05 0.05 81 1020.7
20260501191804 20 69 3.2 11.3 0.00 0.05 0.05 81 1020.6
20260501191303 20 113 1.6 8.0 0.00 0.05 0.05 80 1020.4
20260501190803 20 110 6.4 9.7 0.00 0.05 0.05 80 1020.3
20260501190303 20 84 3.2 9.7 0.00 0.05 0.05 80 1020.3
20260501185306 20 17 4.8 11.3 0.00 0.05 0.05 79 1020.4
20260501183804 20 49 6.4 9.7 0.00 0.05 0.05 78 1020.4
20260501183304 20 56 4.8 9.7 0.00 0.05 0.05 77 1020.3
20260501182803 20 17 8.0 11.3 0.00 0.05 0.05 77 1020.2
20260501182306 20 52 4.8 9.7 0.00 0.05 0.05 77 1020.2
20260501181804 20 58 3.2 11.3 0.00 0.05 0.05 77 1020.1
20260501181304 21 73 6.4 11.3 0.00 0.05 0.05 76 1020.1
20260501180803 21 36 6.4 9.7 0.00 0.05 0.05 74 1020.0
20260501175306 21 18 4.8 8.0 0.00 0.05 0.05 72 1020.0
20260501174804 21 24 8.0 9.7 0.00 0.05 0.05 71 1019.8
20260501174303 21 43 3.2 8.0 0.00 0.05 0.05 72 1019.8
20260501173804 21 54 4.8 9.7 0.00 0.05 0.05 72 1019.8
20260501173304 21 24 4.8 9.7 0.00 0.05 0.05 71 1019.8
20260501172803 21 92 1.6 9.7 0.00 0.05 0.05 71 1019.8
20260501171804 21 50 4.8 8.0 0.00 0.05 0.05 72 1019.6
20260501171303 21 49 4.8 8.0 0.00 0.05 0.05 73 1019.5
20260501170804 21 20 8.0 12.9 0.00 0.05 0.05 72 1019.5
20260501170305 21 31 4.8 11.3 0.00 0.05 0.05 71 1019.5
20260501165306 21 65 3.2 9.7 0.00 0.05 0.05 72 1019.5
20260501164805 21 88 4.8 9.7 0.00 0.05 0.05 72 1019.6
20260501164305 21 50 6.4 9.7 0.00 0.05 0.05 72 1019.5
20260501163805 21 47 8.0 9.7 0.00 0.05 0.05 71 1019.5
20260501163305 21 32 6.4 11.3 0.00 0.05 0.05 71 1019.6
20260501162805 21 46 6.4 14.5 0.00 0.05 0.05 71 1019.7
20260501162306 21 53 4.8 9.7 0.00 0.05 0.05 71 1019.7
20260501161805 21 27 6.4 11.3 0.00 0.05 0.05 71 1019.6
20260501161305 21 70 4.8 9.7 0.00 0.05 0.05 70 1019.6
20260501160805 21 39 6.4 12.9 0.00 0.05 0.05 69 1019.6
20260501160305 21 21 4.8 11.3 0.00 0.05 0.05 69 1019.6
20260501155805 22 62 9.7 19.3 0.00 0.05 0.05 67 1019.6
20260501155306 22 90 3.2 11.3 0.00 0.05 0.05 68 1019.5
20260501153305 21 11 8.0 12.9 0.00 0.05 0.05 71 1019.6
20260501152805 21 12 8.0 14.5 0.00 0.05 0.05 71 1019.6
20260501151805 21 50 4.8 11.3 0.00 0.05 0.05 71 1019.6
20260501151305 21 64 4.8 9.7 0.00 0.05 0.05 72 1019.6
20260501150805 21 127 3.2 11.3 0.00 0.05 0.05 72 1019.6
20260501150305 21 127 4.8 12.9 0.00 0.05 0.05 74 1019.6